Location: Berlise
(49.6641°N, 4.1077°E)
Time: 23:55:18
(UTC+00:00)

Cosmos 1655 Rocket - Pass Details

Date: 27 January 2021
Orbit: 971 x 1006 km, 83.0° (Epoch: 01 March)

Event Time Altitude Azimuth Distance (km) Brightness Sun altitude
Rises 05:43:36 0° 352° (N) 3,686 6.8 -15.9°
Reaches altitude 10° 05:46:09 10° 355° (N) 2,737 6.2 -15.5°
Maximum altitude 05:52:23 65° 78° (ENE) 1,074 4.5 -14.5°
Drops below altitude 10° 05:58:38 10° 160° (SSE) 2,742 6.8 -13.6°
Sets 06:01:10 0° 163° (SSE) 3,691 7.5 -13.1°
